Regional Weather Roundup
Issued by NWS Wakefield, VA

Home | Current Version | Previous Version | Text Only | Print | Product List | Glossary Off
Versions: 1 2 3 4 5 6 7 8 9 10 11 12 13 14 15 16 17 18 19 20 21 22 23 24 25 26 27 28

000
ASUS41 KAKQ 241614
RWRAKQ

REGIONAL WEATHER ROUNDUP
NATIONAL WEATHER SERVICE WAKEFIELD VA
1100 AM EST FRI FEB 24 2017

Note: "fair" indicates few or no clouds below 12,000 feet with no
significant weather and/or obstructions to visibility. * = Denotes
station may not report precipitation (e.g., rain,snow,etc.),
thunder or fog.

VAZ042-051-052>054-056-241700-
NORTHERN VIRGINIA

CITY           SKY/WX    TMP DP  RH WIND       PRES   REMARKS
WASH NATIONAL  MOSUNNY   69  56  62 S14       29.92F
DULLES         MOSUNNY   71  54  54 S9        29.90F
FORT BELVOIR   SUNNY     71  55  58 S10       29.91F
QUANTICO       MOSUNNY   61  54  77 S12       29.93F
FREDERICKSBRG* SUNNY     72  56  58 SW12      29.92F
STAFFORD*      SUNNY     71  56  58 SW9       29.96F
WARRENTON      SUNNY     73  51  46 S12       29.91S
CULPEPER*      SUNNY     72  56  57 SW9       29.92F
MANASSAS*      SUNNY     73  55  53 S13G18    29.91F
LEESBURG*      SUNNY     70  55  60 MISG      29.91F
WINCHESTER     MOSUNNY   68  52  56 SW7       29.88F
FRONT ROYAL*   NOT AVBL
LURAY*         NOT AVBL
$$

VAZ048-049-060>072-079>083-241700-
CENTRAL AND SOUTH CENTRAL VIRGINIA

CITY           SKY/WX    TMP DP  RH WIND       PRES   REMARKS
RICHMOND       MOSUNNY   68  58  70 S7        29.95F
CHESTERFIELD*  PTSUNNY   68  46  45 S7        29.96F
PETERSBURG*    SUNNY     67  56  68 SE6       29.96F
HANOVER        SUNNY     69  55  60 VRB6      29.95F
TAPPAHANNOCK*  SUNNY     69  54  58 SE7       29.96F
QUINTON*       NOT AVBL
CHARLOTTSVILLE SUNNY     70  54  56 S8        29.91F
GORDONSVILLE*  NOT AVBL
ORANGE*        SUNNY     70  54  56 S7        29.93F
LOUISA*        SUNNY     73  59  60 S10G16    29.92F
BUMPASS*       NOT AVBL
FARMVILLE*     SUNNY     72  56  56 S10       29.92F
CREWE*         NOT AVBL
FORT PICKETT*  NOT AVBL
CHASE CITY*    NOT AVBL
CLARKSVILLE*   NOT AVBL
SOUTH HILL*    MOSUNNY   66  59  77 SW7       30.01F
LAWRENCEVILLE* NOT AVBL
EMPORIA*       SUNNY     70  57  64 E5        29.96F
$$

VAZ088>098-241700-
SOUTHEAST VIRGINIA

CITY           SKY/WX    TMP DP  RH WIND       PRES   REMARKS
NORFOLK        MOSUNNY   74  58  57 SW10      29.95F
VIRGINIA BEACH MOSUNNY   72  59  63 S7        29.94F
NORFOLK NAVAL  MOSUNNY   73  57  57 SW9       29.96F
WEST POINT*    MOSUNNY   70  57  63 S6        29.96F
SALUDA*        NOT AVBL
NEWPORT NEWS   PTSUNNY   69  57  65 S7        29.96F
LANGLEY AFB    MOSUNNY   70  60  69 S6        29.95F
FORT EUSTIS    SUNNY     73  60  63 VRB5      29.93F
WILLIAMSBURG*  SUNNY     73  63  68 CALM      29.96F
HR EXEC AP*    NOT AVBL
FRANKLIN*      PTSUNNY   71  58  64 E3        29.95F
US460-WAKEFLD  MOSUNNY   69  59  70 S6        29.95F
$$

VAZ020-022-025-037-045-241700-
WEST CENTRAL AND SOUTHWEST VIRGINIA

CITY           SKY/WX    TMP DP  RH WIND       PRES   REMARKS
STAUNTON*      SUNNY     68  52  55 SW12      29.93F
WAYNESBORO*    NOT AVBL
HOT SPRINGS VA SUNNY     61  43  51 S8        29.97F
LYNCHBURG      MOSUNNY   68  54  60 VRB6      29.94F
DANVILLE       SUNNY     68  57  68 CALM      29.94F
SOUTH BOSTON*  NOT AVBL
MARTINSVILLE   PTSUNNY   65  55  68 W7        29.96F
ROANOKE        MOSUNNY   66  52  60 CALM      29.94F
BLACKSBURG     MOSUNNY   64  53  66 SW7       29.96F
DUBLIN*        MOSUNNY   67  55  66 S9        29.94F
MARION*        SUNNY     65  52  64 NE6       29.95F
HILLSVILLE*    PTSUNNY   64  53  68 S6        29.94F
RICHLANDS*     FAIR      67  45  44 SE6       29.90F
WISE*          SUNNY     64  45  48 S9G16     29.91S
ABINGDON*      SUNNY     69  48  46 SW5       29.90F
$$

MDZ021>025-VAZ099-100-241700-
SOUTHERN MARYLAND AND THE DELMARVA PENINSULA

CITY           SKY/WX    TMP DP  RH WIND       PRES   REMARKS
PATUXENT RIVER MOSUNNY   68  58  70 S12       29.95F
BAY BRIDGE APT SUNNY     66  57  72 S14G20    29.94F
LEONARDTOWN    SUNNY     68  55  64 S9G18     29.96F
DOVER          SUNNY     69  62  78 S18       29.94F
GEORGETOWN     MOSUNNY   72  56  57 S10       29.96F
EASTON         SUNNY     70  55  60 S13       29.99F
CAMBRIDGE      MOSUNNY   68  57  68 S9        29.96F
SALISBURY      PTSUNNY   69  58  67 S12       29.96F
OCEAN CITY     SUNNY     63  55  75 SW8       29.98S
WALLOPS ISLAND MOSUNNY   65  59  81 S12       29.98S
ACCOMACK*      SUNNY     70  60  71 S7        29.96F
$$

NCZ012>017-030>032-241700-
NORTH CENTRAL AND EASTERN NORTH CAROLINA

CITY           SKY/WX    TMP DP  RH WIND       PRES   REMARKS
ROANOKE RAPIDS FAIR      70  59  68 S3        29.95F
RALEIGH        MOSUNNY   70  58  65 E3        29.95F
ELIZABETH CITY SUNNY     74  58  57 SE10      29.95F
AHOSKIE*         N/A     71  59  67 S5        29.95F HAZE
EDENTON*       SUNNY     74  60  61 SE7       29.95F
CURRITUCK*     SUNNY     74  59  59 SE6       29.95F
KILL DEVIL HLS NOT AVBL
MANTEO         MOSUNNY   70  59  68 E8        29.96F
CAPE HATTERAS  MOSUNNY   74  60  61 E10       29.95S HAZE
TARBORO*       NOT AVBL
GOLDSBORO      MOSUNNY   73  63  70 E6        29.92F
WASHINGTON     MOSUNNY   73  60  63 SE9       29.94F
GREENVILLE     SUNNY     73  61  64 E5        29.96F
NEW BERN       MOSUNNY   73  62  68 E10       29.94F
WILMINGTON     MOSUNNY   75  61  61 VRB6      29.92F
$$

VAZ048-241700-
ELSEWHERE

CITY           SKY/WX    TMP DP  RH WIND       PRES   REMARKS
HARRISBURG PA  PTSUNNY   69  54  58 SE6       29.88F
BALTIMORE      MOSUNNY   72  55  55 S12G17    29.91F
ANNAPOLIS      SUNNY     62  55  77 SE10      29.94S
ANDREWS AFB    SUNNY     73  55  54 S12G21    29.91F
PHILADELPHIA   MOSUNNY   70  54  56 S9        29.94F
HENDERSON NC   MOSUNNY   66  55  68 SE7       29.96S
GREENSBORO     MOSUNNY   69  56  62 W6        29.94F
ROCKY MOUNT    SUNNY     71  60  68 CALM      29.94F
$$

VAZ100-241700-
MARINE

STATION/POSITION TIME  TEMP    WIND        PRES    WAVE   SWELL
                       AIR SEA DIR/SP/G            HT/PER HT/PER
                 (UTC) (F)     (DEG/KT/KT) (MB)    (FT/S) (FT/S)
CAPE MAY NJ      1548   63 44  170/  8/ 13 1014.5F
LEWES DE         1548   68 44  190/ 10/ 14 1014.5F
OCEAN-CITY-INLET 1542   52 44  210/  7/  9 1015.7S
WACHAPREAGUE VA  1548   63 54  210/  6/  7 1015.0F
THOMAS POINT MD  1600   55 44  160/ 16/ 17   N/A
GOOSES REEF MD   1600   51 45  160/ 12/ 12 1014.6    1/ 2
COVE POINT MD    1548   49     180/ 10/ 11 1014.8F
SOLOMONS ISLAND  1542   60 45  100/  6/  7   N/A
BISHOPS HEAD MD  1548   53 51  150/  8/  9 1015.0F
PINEY POINT MD   1548          140/  8/  8   N/A
POTOMAC MD       1600   51 46  130/  6/  8 1013.5    0
CAMBRIDGE MD     1548   67 44  190/  5/ 10 1013.7F
LEWISETTA VA     1548   67 45  210/  8/ 10 1013.9F
RAPPAHANNOCK LGT 1548          220/  5/  6 1015.3F
YORK RVR RNG VA  1548   55     130/  7/  7 1013.9F
YORKTOWN VA      1548   53 49   80/  9/ 10 1014.2F
JAMESTOWN VA     1600   65 53  260/  2/  2   N/A     0
DOMINION TERM VA 1548   64      CALM  /  1 1014.4F
KIPTOPEKE VA     1548      49  180/  7/  7   N/A
CHES BAY BRIDGE  1548   58 47   90/  4/  6 1014.3F
CAPE HENRY VA    1548   64     130/  8/ 11   N/A
WILLOUBY STN VA  1548   58      40/  4/  4 1015.3F
S CRANEY ISL VA  1548   68     230/  1/  3 1014.1F
CAPE HENRY BUOY  1542      51                N/A     3/11   2/11
OFFSHORE WE BUOY 1551      49                N/A     4/11   2/11
64NM E OF VA BCH 1550   60 55   90/  2/  4 1014.8F   6/11   5/11
DUCK PIER NC     1548   64 49   90/  5/  6 1014.0F
44100 DUCK FRF   1535      50                N/A     5/12   3/12
44056 DUCK FRF   1530      53                N/A     4/13   2/13
OREGON INLET NC  1536   63 57   40/  7/  9 1014.4R
HATTERAS NC      1548   71 62   80/  7/  9 1013.7S
DIAMOND SHLS NC  1550   72 74  120/ 16/ 17 1013.5F   8/ 9   7/ 9
CAPE LOOKOUT NC  1500   65      30/  9/ 10 1013.5R
$$




USA.gov is the U.S. government's official web portal to all federal, state and local government web resources and services.